Weather History for Sanford, NC

Change the Weather History Date:

Friday, April 5, 2013

  Actual Average (KRDU) Record (KRDU)
Temperature  
Mean Temperature 50 °F 57 °F  
Max Temperature 62 °F 70 °F 90 °F (1942)
Min Temperature 39 °F 45 °F 29 °F (1992)
Degree Days  
Heating Degree Days 14 9  
Month to date heating degree days 45  
Since 1 July heating degree days 3041  
Cooling Degree Days 0 1  
Month to date cooling degree days 5  
Year to date cooling degree days 17  
Moisture  
Dew Point 43 °F    
Average Humidity 83    
Maximum Humidity 97    
Minimum Humidity 52    
Precipitation  
Precipitation 0.00 in 0.10 in 2.08 in (1993)
Month to date precipitation 0.54  
Year to date precipitation 11.38  
Snow  
Snow 0.00 in 0.00 in T in (1987)
Month to date snowfall 0.0  
Since 1 July snowfall 6.0  
Snow Depth -    
Sea Level Pressure  
Sea Level Pressure 29.94 in    
Wind  
Wind Speed 5 mph (NW)    
Max Wind Speed 10 mph    
Max Gust Speed 16 mph    
Visibility 9 miles    
Events      
T = Trace of Precipitation, MM = Missing Value Source: NWS Daily Summary

Daily Weather History Graph

Daily Weather History Graph

Search for Another Location

Airport:

Trip Planner

Search our weather history database for the weather conditions in past years. The results will help you decide how hot, cold, wet, or windy it might be!

Date:

Astronomy

Apr. 05, 2013 Rise Set
Actual Time 6:57 AM EDT 7:41 PM EDT
Civil Twilight 6:31 AM EDT 8:07 PM EDT
Nautical Twilight 6:00 AM EDT 8:37 PM EDT
Astronomical Twilight 5:29 AM EDT 9:09 PM EDT
Moon 3:53 AM EDT (4/5) 3:12 PM EDT (4/5)
Length of Visible Light 13h 36m
Length of Day
12h 44m
Waning Crescent, 24% of the Moon is Illuminated
Apr 5
Waning Crescent
Apr 10
New
Apr 18
First Quarter
Apr 25
Full
May 2
Last Quarter

Hourly Weather History & Observations

Time (EDT) Temp. Windchill Dew Point Humidity Pressure Visibility Wind Dir Wind Speed Gust Speed Precip Events Conditions
12:15 AM 40.6 °F 34.8 °F 39.4 °F 95% 29.92 in 7.0 mi North 9.2 mph - N/A   Drizzle
12:35 AM 40.6 °F 34.3 °F 39.4 °F 95% 29.90 in 5.0 mi NNE 10.4 mph - N/A   Drizzle
12:55 AM 40.6 °F 34.3 °F 39.4 °F 95% 29.90 in 7.0 mi North 10.4 mph - N/A   Light Drizzle
1:15 AM 40.5 °F 34.6 °F 39.2 °F 95% 29.90 in 7.0 mi North 9.2 mph - N/A   Drizzle
1:35 AM 40.5 °F 35.1 °F 39.2 °F 95% 29.90 in 10.0 mi North 8.1 mph - N/A   Light Drizzle
1:55 AM 40.5 °F 36.5 °F 39.2 °F 95% 29.90 in 10.0 mi NNW 5.8 mph - N/A   Overcast
2:15 AM 40.6 °F 36.0 °F 39.4 °F 95% 29.90 in 7.0 mi NW 6.9 mph - N/A   Overcast
2:35 AM 40.6 °F 36.7 °F 39.4 °F 95% 29.89 in 7.0 mi NW 5.8 mph - N/A   Overcast
2:55 AM 41.0 °F 37.1 °F 39.6 °F 95% 29.89 in 4.0 mi NW 5.8 mph - N/A   Overcast
3:15 AM 41.0 °F 38.0 °F 39.6 °F 95% 29.89 in 3.0 mi WNW 4.6 mph - N/A   Overcast
3:35 AM 41.0 °F 38.0 °F 39.6 °F 95% 29.90 in 4.0 mi NW 4.6 mph - N/A   Overcast
3:55 AM 40.5 °F 36.5 °F 39.2 °F 95% 29.91 in 4.0 mi WNW 5.8 mph - N/A   Overcast
4:15 AM 40.3 °F 37.1 °F 39.2 °F 96% 29.91 in 5.0 mi WNW 4.6 mph - N/A   Overcast
4:35 AM 40.3 °F 37.1 °F 39.2 °F 96% 29.91 in 5.0 mi NW 4.6 mph - N/A   Overcast
4:55 AM 40.1 °F 38.0 °F 39.0 °F 96% 29.90 in 5.0 mi NNW 3.5 mph - N/A   Overcast
5:15 AM 40.3 °F 37.1 °F 39.2 °F 96% 29.90 in 5.0 mi NW 4.6 mph - N/A   Overcast
5:35 AM 40.3 °F 37.1 °F 39.0 °F 95% 29.90 in 5.0 mi NNW 4.6 mph - N/A   Overcast
5:55 AM 40.3 °F 34.4 °F 39.2 °F 96% 29.90 in 10.0 mi NNW 9.2 mph - N/A   Overcast
6:15 AM 40.1 °F 36.1 °F 38.7 °F 95% 29.91 in 10.0 mi NNW 5.8 mph - N/A   Overcast
6:35 AM 39.9 °F 35.8 °F 38.5 °F 95% 29.91 in 10.0 mi NNW 5.8 mph - N/A   Overcast
6:55 AM 40.1 °F 36.9 °F 38.5 °F 94% 29.92 in 10.0 mi NNW 4.6 mph - N/A   Overcast
7:15 AM 40.1 °F - 38.5 °F 94% 29.92 in 10.0 mi Calm Calm - N/A   Overcast
7:35 AM 40.1 °F 36.9 °F 38.7 °F 95% 29.93 in 10.0 mi WNW 4.6 mph - N/A   Overcast
7:55 AM 40.3 °F - 38.7 °F 94% 29.94 in 10.0 mi Calm Calm - N/A   Overcast
8:15 AM 40.8 °F 38.8 °F 39.0 °F 93% 29.95 in 10.0 mi WNW 3.5 mph - N/A   Overcast
8:35 AM 41.0 °F - 39.2 °F 93% 29.96 in 10.0 mi Calm Calm - N/A   Overcast
8:55 AM 41.4 °F 37.6 °F 39.4 °F 93% 29.95 in 10.0 mi NW 5.8 mph - N/A   Overcast
9:15 AM 42.1 °F 37.7 °F 40.1 °F 93% 29.96 in 10.0 mi NW 6.9 mph - N/A   Overcast
9:35 AM 42.8 °F 41.1 °F 40.6 °F 92% 29.96 in 10.0 mi NW 3.5 mph - N/A   Overcast
9:55 AM 43.2 °F - 40.8 °F 91% 29.98 in 10.0 mi Calm Calm - N/A   Overcast
10:15 AM 44.1 °F 41.5 °F 41.4 °F 90% 29.97 in 10.0 mi NNW 4.6 mph - N/A   Overcast
10:35 AM 44.6 °F - 41.5 °F 89% 29.98 in 10.0 mi Calm Calm - N/A   Overcast
10:55 AM 46.0 °F 43.1 °F 43.0 °F 89% 29.98 in 10.0 mi NNW 5.8 mph - N/A   Overcast
11:15 AM 47.8 °F - 43.9 °F 86% 29.97 in 10.0 mi North 6.9 mph - N/A   Overcast
11:35 AM 50.0 °F - 44.8 °F 82% 29.96 in 10.0 mi NW 9.2 mph - N/A   Overcast
11:55 AM 52.2 °F - 46.0 °F 80% 29.96 in 10.0 mi North 9.2 mph - N/A   Mostly Cloudy
12:15 PM 53.2 °F - 45.1 °F 74% 29.96 in 10.0 mi WNW 9.2 mph - N/A   Mostly Cloudy
12:35 PM 54.9 °F - 46.2 °F 73% 29.95 in 10.0 mi North 10.4 mph - N/A   Mostly Cloudy
12:55 PM 56.5 °F - 46.2 °F 68% 29.95 in 10.0 mi NNE 5.8 mph 16.1 mph N/A   Scattered Clouds
1:15 PM 56.3 °F - 46.2 °F 69% 29.93 in 10.0 mi NNE 10.4 mph - N/A   Mostly Cloudy
1:35 PM 56.8 °F - 44.8 °F 64% 29.94 in 10.0 mi NW 3.5 mph - N/A   Scattered Clouds
1:55 PM 57.0 °F - 45.0 °F 64% 29.93 in 10.0 mi East 4.6 mph - N/A   Mostly Cloudy
2:15 PM 57.9 °F - 45.1 °F 62% 29.93 in 10.0 mi NE 4.6 mph - N/A   Mostly Cloudy
2:35 PM 58.3 °F - 45.0 °F 61% 29.92 in 10.0 mi Calm Calm - N/A   Overcast
2:55 PM 59.0 °F - 45.9 °F 62% 29.91 in 10.0 mi Calm Calm - N/A   Mostly Cloudy
3:15 PM 59.2 °F - 44.2 °F 58% 29.91 in 10.0 mi Calm Calm - N/A   Mostly Cloudy
3:35 PM 61.5 °F - 45.9 °F 56% 29.91 in 10.0 mi SW 3.5 mph - N/A   Mostly Cloudy
3:55 PM 59.9 °F - 44.4 °F 57% 29.90 in 10.0 mi WNW 4.6 mph - N/A   Overcast
4:15 PM 60.8 °F - 44.8 °F 56% 29.90 in 10.0 mi WSW 3.5 mph - N/A   Overcast
4:35 PM 60.4 °F - 44.4 °F 56% 29.90 in 10.0 mi Calm Calm - N/A   Mostly Cloudy
4:55 PM 61.0 °F - 44.6 °F 55% 29.90 in 10.0 mi Calm Calm - N/A   Mostly Cloudy
5:15 PM 61.7 °F - 44.6 °F 53% 29.90 in 10.0 mi Calm Calm - N/A   Scattered Clouds
5:35 PM 62.6 °F - 45.7 °F 54% 29.90 in 10.0 mi SSW 4.6 mph - N/A   Clear
5:55 PM 62.8 °F - 45.3 °F 53% 29.91 in 10.0 mi WSW 3.5 mph - N/A   Scattered Clouds
6:15 PM 62.8 °F - 45.1 °F 53% 29.91 in 10.0 mi SSW 3.5 mph - N/A   Scattered Clouds
6:35 PM 62.6 °F - 45.0 °F 52% 29.91 in 10.0 mi Calm Calm - N/A   Clear
6:55 PM 61.7 °F - 45.7 °F 56% 29.92 in 10.0 mi Calm Calm - N/A   Clear
7:15 PM 60.4 °F - 47.3 °F 62% 29.93 in 10.0 mi Calm Calm - N/A   Clear
7:35 PM 56.1 °F - 48.7 °F 76% 29.93 in 10.0 mi Calm Calm - N/A   Clear
7:55 PM 54.7 °F - 48.7 °F 80% 29.93 in 10.0 mi Calm Calm - N/A   Clear
8:15 PM 52.9 °F - 48.2 °F 84% 29.94 in 10.0 mi Calm Calm - N/A   Clear
8:35 PM 51.1 °F - 47.5 °F 87% 29.96 in 10.0 mi Calm Calm - N/A   Clear
8:55 PM 49.5 °F - 46.8 °F 90% 29.97 in 10.0 mi Calm Calm - N/A   Clear
9:15 PM 47.7 °F - 45.3 °F 92% 29.99 in 10.0 mi Calm Calm - N/A   Clear
9:35 PM 47.3 °F - 45.7 °F 94% 30.00 in 10.0 mi Calm Calm - N/A   Clear
9:55 PM 46.0 °F - 44.6 °F 95% 30.01 in 10.0 mi Calm Calm - N/A   Clear
10:15 PM 45.0 °F - 43.7 °F 95% 30.01 in 10.0 mi Calm Calm - N/A   Clear
10:35 PM 44.8 °F - 43.7 °F 96% 30.01 in 10.0 mi Calm Calm - N/A   Clear
10:55 PM 43.2 °F - 41.9 °F 95% 30.01 in 10.0 mi Calm Calm - N/A   Clear
11:15 PM 43.0 °F - 41.9 °F 96% 30.02 in 7.0 mi Calm Calm - N/A   Clear
11:35 PM 41.9 °F - 41.0 °F 97% 30.02 in 10.0 mi Calm Calm - N/A   Clear
11:55 PM 41.0 °F - 39.7 °F 95% 30.02 in 5.0 mi Calm Calm - N/A   Clear